Regional Weather Roundup
Issued by NWS Upton, NY

Current Version | Previous Version | Text Only | Print | Product List | Glossary On
Versions: 1 2 3 4 5 6 7 8 9 10 11 12 13 14 15 16 17 18 19 20 21 22 23 24 25 26 27 28 29 30 31 32 33 34 35 36 37 38 39 40 41 42 43 44 45 46 47 48 49 50
000 ASUS41 KOKX 300204 RWROKX REGIONAL WEATHER ROUNDUP NATIONAL WEATHER SERVICE NEW YORK NY 1000 PM EDT SAT AUG 29 2015 NOTE: "FAIR" INDICATES FEW OR NO CLOUDS BELOW 12,000 FEET WITH NO SIGNIFICANT WEATHER AND/OR OBSTRUCTIONS TO VISIBILITY. NYZ071-072-176-178-NJZ106-104-300300- NEW YORK CITY METRO AREA CITY SKY/WX TMP DP RH WIND PRES REMARKS CENTRAL PARK CLEAR 77 58 51 VRB3 30.13S LAGUARDIA APRT PTCLDY 77 59 53 S12G21 30.10S KENNEDY INTL PTCLDY 75 65 70 S12 30.12S NEWARK/LIBERTY MOCLDY 76 60 57 S7 30.11S BRNX BOT. GARD N/A 75 59 57 W1 30.13R TETERBORO CLEAR 75 59 57 MISG 30.09S $$ NYZ177-179-078>081-300300- LONG ISLAND NEW YORK CITY SKY/WX TMP DP RH WIND PRES REMARKS FARMINGDALE CLEAR 75 64 68 SW8 30.12S ISLIP MOCLDY 73 63 70 S8 30.11S SHIRLEY N/A 73 64 73 SW6 30.13S WESTHAMPTON CLEAR 73 64 73 SW5 30.14S MONTAUK POINT N/A 73 64 73 SW5 30.14R $$ NYZ052-065-067-300300- HUDSON VALLEY CITY SKY/WX TMP DP RH WIND PRES REMARKS WHITE PLAINS CLEAR 69 61 75 CALM 30.12S NEWBURGH CLEAR 72 63 73 CALM 30.11S MONTGOMERY CLEAR 65 62 90 CALM 30.10R POUGHKEEPSIE CLEAR 68 60 75 CALM 30.09R ALBANY CLOUDY 72 61 68 SE3 30.09R $$ NJZ001-105-106-008-010-013-015-019>022-104-300300- NEW JERSEY CITY SKY/WX TMP DP RH WIND PRES REMARKS NEWARK/LIBERTY MOCLDY 76 60 57 S7 30.11S TETERBORO CLEAR 75 59 57 MISG 30.09S CALDWELL CLEAR 75 59 57 CALM 30.11R MORRISTOWN MOCLDY 68 63 83 CALM 30.11S SOMERVILLE PTCLDY 72 61 68 S5 30.09R SUSSEX CLEAR 66 62 87 CALM 30.11R ANDOVER N/A 65 64 97 CALM 30.12R TRENTON PTCLDY 73 62 68 S8 30.11R MILLVILLE MOCLDY 73 62 68 CALM 30.14R ATLANTIC CITY MOCLDY 73 63 70 S6 30.14R WRIGHTSTOWN PTCLDY 70 61 73 SW7 30.10R TOMS RIVER MOCLDY 70 61 73 S3 30.13S BELMAR PTCLDY 73 59 60 SW7 30.13S $$ PAZ047>061-062-071-300300- EASTERN PENNSYLVANIA CITY SKY/WX TMP DP RH WIND PRES REMARKS PHILADELPHIA MOCLDY 76 61 59 SW6 30.13R ALLENTOWN PTCLDY 70 62 76 SW5 30.10S SCRANTON CLEAR 69 58 67 SE3 30.12R $$ CTZ002-004>006-009-010-012-RIZ004-006-007-MAZ004-011-015-300300- SOUTHERN NEW ENGLAND IN CT CITY SKY/WX TMP DP RH WIND PRES REMARKS BRADLEY INTL CLEAR 68 59 73 S7 30.09S HARTFORD CLEAR 70 60 70 S5 30.10S DANBURY CLEAR 71 59 65 S7 30.13S WTRBRY/OXFORD CLEAR 68 57 68 CALM 30.15R BRIDGEPORT CLEAR 76 64 66 SW12 30.12R MERIDEN CLEAR 66 58 75 CALM 30.12R NEW HAVEN CLEAR 74 64 71 SW8 30.12S CHESTER NOT AVBL GROTON CLEAR 71 67 87 SW7 30.12R WILLIMANTIC CLEAR 66 60 81 CALM 30.12R IN RI CITY SKY/WX TMP DP RH WIND PRES REMARKS PROVIDENCE PTCLDY 70 59 68 SW7 30.12S BLOCK ISLAND CLEAR 72 66 83 SW9 30.13S WESTERLY CLEAR 72 64 76 SW6 30.13S IN MA CITY SKY/WX TMP DP RH WIND PRES REMARKS BOSTON PTCLDY 75 56 51 W7 30.09S WORCESTER CLEAR 66 55 67 W6 30.14R WESTFIELD CLEAR 61 58 90 SW5 30.10S PROVINCETOWN PTCLDY 70 59 68 SW12G17 30.11S NANTUCKET CLEAR 70 65 84 SW9 30.13S $$ ANZ330-335-338-340-345-350-353-355-300300- COASTAL MARINE OBSERVATIONS STATION/POSITION TIME SKY/WX TEMP WIND PRES VSBY WAVE AIR SEA DIR/SP/G HT/PER (UTC) (F) (DEG/KT/KT) (MB) (MI) (FT/S) NY HARB ENTRANCE 0050 76 76 200/ 16/ 19 1019.1 3/11 4S FIRE IS NOT AVBL 20S FIRE ISLAND 0050 75 75 210/ 14/ 16 1019.7 3/10 GREAT SOUTH BAY NOT AVBL 23SW MTP 0150 74 73 220/ 12/ 14 1019.9 3/11 HUDSON CANYON NOT AVBL KINGS POINT NOT AVBL EXECUTION ROCKS 0100 75 190/ 10/ 16 N/A CENTRAL LI SOUND NOT AVBL EASTERN LI SOUND 0100 72 70 200/ 10/ 14 N/A ROBBINS REEF NOT AVBL $$ >>>>>>>>>>>>>>>>>>>>>>>>>>>> KEY <<<<<<<<<<<<<<<<<<<<<<<<<<< > < > SKY/WX - SKY CONDITION/PRESENT WEATHER < > TMP - TEMPERATURE IN FAHRENHEIT < > DP - DEWPOINT IN FAHRENHEIT < > RH - RELATIVE HUMIDITY IN PERCENT < > WIND - DIRECTION AND SPEED IN MPH < > PRES - MEAN SEA LEVEL PRESSURE IN INCHES OF HG < > WCI - WIND CHILL INDEX < > VSB - VISIBILITY IN MILES < > HX - HEAT INDEX < > TC - TEMPERATURE IN CELSIUS < > VRB - VARIABLE WIND DIRECTION < > < >>>>>>>>>>>>>>>>>>>>>>>>>>>> KEY <<<<<<<<<<<<<<<<<<<<<<<<<<<

USA.gov is the U.S. government's official web portal to all federal, state and local government web resources and services.